Probability
0 0 0 0 0 0 0 0 0 0 0 1 2 4 7 11 10 10 14 16 13 11 10 10 10 11 12 12 10 8 8 9 10 11 12 12 10 8 6 6 7 7 7 8
0 0 0 0 0 0 0 0 0 0 1 2 3 6 8 10 12 13 15 17 15 12 11 11 11 12 13 13 11 10 10 10 10 9 10 11 9 7 6 6 8 8 8 8
0 0 0 0 0 0 0 0 0 0 1 3 4 6 7 9 12 15 16 16 15 14 13 12 13 13 13 12 11 11 12 11 9 8 7 8 8 7 6 8 10 10 9 8
0 0 0 0 0 0 0 0 0 0 1 2 2 2 4 7 11 14 16 16 15 14 13 12 12 13 12 10 9 10 11 10 8 6 5 6 6 6 6 8 9 8 8 9
0 0 0 0 0 0 0 0 0 0 0 0 0 0 2 6 10 13 17 19 19 15 12 10 11 12 11 9 8 9 9 8 6 5 5 5 4 4 4 5 4 4 6 7
0 0 0 0 0 0 0 0 0 0 0 0 0 0 3 7 8 11 18 22 22 17 13 11 11 12 12 10 9 10 9 6 4 4 4 4 3 3 3 3 2 2 3 4
0 0 0 0 0 0 0 0 0 0 0 0 0 1 6 9 9 11 17 21 20 18 15 13 12 13 12 11 10 11 10 6 4 3 3 2 2 2 3 2 2 1 1 2
0 0 0 0 0 0 0 0 0 0 0 0 0 2 7 9 10 11 13 15 16 17 16 15 14 15 14 11 10 10 8 5 3 2 2 1 1 1 2 2 1 1 0 1
0 0 0 0 0 0 0 0 0 0 0 0 0 2 5 7 8 9 8 9 12 15 16 16 17 17 14 11 8 5 4 2 1 2 2 1 0 1 1 1 0 0 0 0
0 0 0 0 0 0 0 0 0 0 0 0 0 1 3 4 4 5 3 4 9 13 14 16 17 16 13 9 4 2 1 0 0 1 1 1 0 0 0 0 0 0 0 0
0 0 0 0 0 0 0 0 0 0 0 0 0 1 1 2 3 3 1 2 6 10 11 13 13 12 9 5 3 1 0 0 0 0 0 0 0 0 0 0 0 0 0 0
0 0 0 0 0 0 0 0 0 0 0 0 0 0 1 2 2 1 1 2 4 6 8 9 9 7 5 3 3 2 1 0 0 0 0 0 0 0 0 0 0 0 0 0
1 1 0 0 0 0 0 0 0 0 0 0 0 0 0 1 1 1 1 3 4 4 4 5 6 4 2 2 2 2 1 0 0 0 0 0 0 0 0 0 0 0 0 0
2 2 1 0 0 0 0 0 0 0 0 0 0 0 1 1 0 1 2 3 3 2 2 3 3 2 1 0 1 1 0 0 0 0 0 0 0 0 0 0 0 0 0 0
3 3 2 0 0 0 0 0 0 0 0 0 0 1 1 0 0 1 3 4 3 1 0 1 1 1 0 0 0 0 0 0 0 0 0 0 0 0 0 0 0 0 0 0
3 2 1 0 0 0 0 0 0 0 0 0 0 1 1 0 0 1 4 5 3 1 0 0 0 0 0 0 0 0 0 0 0 0 0 0 0 0 0 0 0 0 0 0
2 1 0 0 0 0 0 0 0 0 0 0 0 0 0 0 0 1 4 5 3 1 0 0 0 0 0 0 0 0 0 0 0 0 0 0 0 0 0 0 0 0 0 0
1 0 0 0 0 0 0 0 0 0 0 0 0 0 0 0 0 0 2 3 1 0 0 0 0 0 0 0 0 0 0 0 0 0 0 0 0 0 0 0 0 0 0 0
0 0 0 0 0 0 0 0 0 0 0 0 0 0 0 0 0 0 1 1 1 0 0 0 0 0 0 0 0 0 0 0 0 0 0 0 0 0 0 0 0 0 0 0
0 0 0 0 0 0 0 0 0 0 0 0 0 0 0 0 0 0 1 1 0 0 0 0 0 0 0 0 0 0 0 0 0 0 0 0 0 0 0 0 0 0 0 0
0 0 0 0 0 0 0 0 0 0 0 0 0 0 0 0 0 0 1 0 0 0 0 0 0 0 0 0 0 0 0 0 0 0 0 0 0 0 0 0 0 0 0 0
0 0 0 0 0 0 0 0 0 0 0 0 0 0 0 0 0 0 0 0 0 0 0 0 0 0 0 0 0 0 0 0 0 0 0 0 0 0 0 0 0 0 0 0
0 0 0 0 0 0 0 0 0 0 0 0 0 0 0 0 0 0 0 0 0 0 0 0 0 0 0 0 0 0 0 0 0 0 0 0 0 0 0 0 0 0 0 0
0 0 0 0 0 0 0 0 0 0 0 0 0 0 0 0 0 0 0 0 0 0 0 0 0 0 0 0 0 0 0 0 0 0 0 0 0 0 0 0 0 0 0 0
0 0 0 0 0 0 0 0 0 0 0 0 0 0 0 0 0 0 0 0 0 0 0 0 0 0 0 0 0 0 0 0 0 0 0 0 0 0 0 0 0 0 0 0
0 0 0 0 0 0 0 0 0 0 0 0 0 0 0 0 0 0 0 0 0 0 0 0 0 0 0 0 0 0 0 0 0 0 0 0 0 0 0 0 0 0 0 0
Wind_Speed
6 9 8 6 3 1 4 6 8 7 6 7 7 9 11 10 10 10 10 9 9 9 9 8 7 7 6 6 6 6 6 5 3 2 1 2 2 2 3 3 4 4 4 4
8 7 4 3 3 4 6 7 8 8 5 4 8 8 9 9 10 9 10 9 10 10 9 8 7 7 7 6 6 6 6 5 4 3 2 2 2 2 3 3 3 4 4 4
5 7 4 5 7 7 7 7 8 9 8 6 8 9 10 9 8 8 9 9 9 10 9 8 7 6 6 6 6 5 6 5 5 3 2 2 2 2 2 3 3 4 4 4
4 5 5 7 7 7 6 4 6 10 10 8 10 7 11 12 10 10 9 9 9 9 9 8 7 7 6 6 6 6 6 6 5 5 4 4 3 3 3 3 3 4 5 5
5 4 5 5 3 4 2 4 7 8 7 5 8 7 7 12 12 12 11 10 10 10 9 8 7 7 6 6 6 6 6 6 6 6 5 4 4 4 3 3 4 4 4 5
4 3 1 2 3 3 7 7 6 7 8 8 5 7 4 7 8 9 11 11 11 10 10 9 8 7 6 6 5 5 6 6 6 6 6 6 5 5 4 4 4 3 3 4
7 6 4 3 6 7 7 7 6 8 8 5 4 5 2 4 2 5 9 11 11 10 10 9 8 7 7 6 5 5 6 6 6 6 6 6 5 4 5 4 4 4 4 4
7 7 4 2 3 4 6 8 7 6 5 2 5 4 5 5 3 4 8 11 11 11 9 9 7 7 7 6 5 5 6 6 5 6 6 6 4 4 4 5 4 5 4 5
2 4 5 2 1 4 5 6 6 8 7 6 3 3 5 4 5 6 9 10 11 11 10 9 8 7 7 6 6 5 5 5 5 5 5 5 5 5 5 4 4 5 5 4
2 3 4 3 4 2 4 2 4 7 6 6 4 4 2 4 5 7 8 9 10 11 10 9 7 7 7 7 6 5 5 5 5 5 5 5 5 5 5 5 7 6 6 6
2 4 5 5 3 2 3 4 5 6 7 8 5 2 6 3 4 7 8 9 10 11 10 9 8 7 7 7 6 5 5 5 5 5 5 6 6 6 6 6 6 6 6 5
1 4 2 2 3 2 3 3 5 6 5 6 6 3 6 3 4 6 8 9 9 10 9 9 8 8 7 7 6 5 5 5 5 5 5 6 6 6 6 6 6 6 5 5
1 4 5 6 6 5 3 1 4 5 5 5 6 3 5 6 7 7 8 9 9 9 9 9 8 7 7 6 6 6 5 5 5 5 6 6 6 6 6 6 6 6 6 6
3 3 5 4 2 1 2 2 3 6 5 4 3 1 4 6 7 7 8 9 9 9 9 9 8 7 7 6 6 6 6 5 5 5 6 6 6 6 5 6 6 6 6 6
3 2 1 1 1 1 2 2 2 3 5 5 3 2 3 5 6 7 8 9 9 9 9 9 8 7 7 7 6 6 5 5 5 5 6 5 5 5 5 5 5 5 5 5
1 1 2 3 3 2 1 1 2 2 2 2 1 2 5 7 7 7 8 9 9 9 9 9 8 8 7 7 7 6 5 5 5 5 5 5 4 5 5 4 5 5 5 6
3 3 4 3 3 5 2 1 1 0 2 3 3 3 6 7 7 7 8 8 9 9 9 9 8 7 7 6 6 6 5 5 5 5 5 4 4 5 4 4 5 5 5 5
3 3 3 3 4 4 4 3 1 1 2 3 3 5 5 5 6 6 6 7 8 9 9 8 8 7 7 7 6 6 5 5 6 5 5 4 4 4 4 4 4 4 4 5
2 3 3 4 4 2 4 2 2 2 1 3 3 6 7 7 7 6 6 7 7 8 8 8 8 8 7 7 7 6 6 5 5 5 5 4 3 3 3 4 4 4 4 4
3 4 4 4 4 2 3 3 1 4 3 4 3 6 7 7 4 6 7 8 8 8 8 8 8 8 8 7 7 7 6 5 5 5 4 4 3 3 3 4 3 3 3 3
5 4 4 4 3 1 4 1 3 4 4 4 3 5 7 4 3 9 10 10 10 9 9 9 9 8 8 8 7 7 6 5 4 4 4 3 3 3 3 3 2 2 2 3
3 3 3 3 3 2 4 0 2 5 4 4 5 7 7 7 9 11 11 11 11 10 10 9 8 8 8 8 7 7 6 5 4 4 4 4 3 2 3 2 2 2 2 2
1 3 2 2 4 6 3 3 4 3 4 4 5 7 8 9 10 11 11 11 11 10 10 9 8 8 8 7 6 7 6 5 5 4 4 3 3 2 2 1 2 1 1 1
4 1 1 2 4 4 4 4 3 3 4 5 7 8 9 10 11 11 11 10 10 10 10 9 9 9 8 7 6 6 6 5 5 5 4 3 3 3 2 0 1 1 2 2
2 4 3 3 5 5 4 4 4 5 6 7 8 8 9 10 11 11 10 10 9 9 9 8 8 9 9 8 7 6 6 6 5 5 4 3 3 3 2 2 2 3 4 4
3 2 3 2 4 3 5 5 5 6 7 8 9 9 9 9 11 11 10 9 9 9 9 9 9 9 9 8 7 7 6 6 5 4 4 3 3 2 2 3 3 2 1 1
Wind_Direction
192 207 190 169 218 120 172 179 163 137 145 192 175 157 158 166 172 166 160 154 146 132 117 110 103 96 87 77 73 65 54 43 36 46 61 76 74 68 63 55 38 27 16 11
194 185 137 143 173 200 190 182 156 139 147 192 166 164 164 176 183 176 167 161 154 138 128 119 110 100 89 79 72 69 60 50 37 36 45 61 68 75 63 50 46 26 21 11
194 110 137 185 183 193 197 202 172 154 151 169 171 179 183 180 184 177 170 164 160 151 144 133 120 105 93 84 76 68 61 58 47 38 73 97 110 104 71 50 46 31 25 26
153 131 185 197 187 208 184 187 182 169 189 177 208 213 182 180 183 182 174 169 162 154 148 141 131 116 101 91 84 73 64 58 53 49 57 67 63 60 46 31 37 31 32 23
140 155 194 188 161 226 102 150 183 196 223 207 208 245 161 174 193 188 180 172 160 154 151 144 133 122 109 97 85 72 66 59 54 52 58 60 60 61 59 49 48 27 37 27
125 138 350 66 99 141 138 156 169 210 225 229 212 247 175 173 201 184 175 169 157 149 146 142 134 128 114 103 92 83 76 67 60 59 61 59 59 56 53 41 35 29 37 29
161 148 130 154 155 164 201 208 212 215 222 224 167 242 75 98 146 177 169 161 154 149 146 146 144 137 120 108 96 85 79 74 66 63 60 59 59 66 62 37 36 18 21 24
190 160 139 165 250 209 219 252 267 271 264 208 177 228 86 78 98 137 145 147 148 149 146 143 143 137 127 116 103 93 86 78 70 66 62 59 51 49 56 45 30 30 21 22
221 136 124 111 307 277 223 243 304 283 276 270 212 146 128 108 117 123 134 145 151 150 145 144 142 132 125 116 106 98 91 85 73 66 67 68 57 49 52 48 39 42 32 24
287 204 146 149 193 109 318 288 248 264 271 267 232 208 154 144 141 140 148 152 149 145 146 143 134 127 119 114 110 103 95 90 81 73 65 70 65 58 55 48 46 41 35 29
275 237 172 185 230 237 198 213 258 274 291 286 275 85 58 107 142 156 154 152 150 149 148 141 136 133 128 124 121 116 109 99 87 77 69 66 64 60 57 52 47 44 37 27
281 274 221 165 88 337 290 289 260 267 262 274 289 80 60 83 127 139 141 142 144 147 146 143 141 141 138 130 122 113 105 98 90 83 79 73 66 59 55 52 46 45 39 29
186 237 223 187 175 184 220 256 271 274 275 276 280 102 85 95 108 119 131 137 139 145 148 145 145 144 135 128 119 111 107 101 95 92 84 74 67 61 53 48 46 45 40 36
277 260 281 299 23 41 217 232 259 265 266 276 293 93 124 115 119 120 128 138 142 148 150 147 146 141 137 133 125 119 110 106 98 91 83 75 68 63 54 50 48 47 42 42
256 209 163 73 75 263 280 280 269 275 305 306 338 15 115 132 132 131 138 144 146 148 150 149 148 142 144 137 128 120 115 107 101 94 86 80 76 71 60 53 50 48 44 45
217 205 182 177 167 190 223 295 276 293 309 298 288 73 105 125 130 137 147 152 152 151 150 151 150 148 148 141 133 125 123 117 107 97 90 85 80 76 63 55 52 53 49 44
180 208 236 213 199 231 215 344 309 28 10 320 328 86 138 145 148 154 157 158 154 152 152 155 155 152 146 140 132 131 127 123 112 101 94 91 84 74 63 59 60 58 54 47
194 216 238 230 221 235 80 65 13 12 43 28 64 112 145 142 137 144 154 154 149 150 151 153 150 146 142 138 134 129 127 124 115 108 105 101 90 82 70 66 64 59 52 46
235 239 249 248 229 187 143 147 282 277 106 79 110 128 131 129 136 135 141 145 146 147 145 145 145 142 140 139 136 132 125 121 118 113 110 101 93 89 80 73 65 57 52 52
167 233 247 244 258 258 87 62 338 260 169 110 133 144 144 166 182 140 142 141 139 138 137 137 139 139 140 139 137 135 129 126 121 117 111 106 101 93 80 71 61 59 58 61
180 201 234 241 247 91 59 27 243 262 61 105 140 146 156 167 62 117 136 137 135 136 137 140 141 140 138 138 140 135 128 119 115 110 106 99 94 101 92 74 58 51 57 60
237 211 210 246 245 98 67 164 358 35 71 119 133 142 143 114 112 127 136 137 140 140 141 143 141 136 136 140 143 136 127 124 124 117 108 99 95 94 96 84 65 55 48 86
267 344 353 7 50 77 79 61 58 65 104 121 135 140 137 131 132 136 138 140 143 143 142 143 139 134 136 142 145 136 133 137 136 130 118 115 111 98 90 96 103 117 99 52
144 128 177 149 125 117 110 98 90 89 106 118 133 142 144 139 140 140 141 144 146 144 144 148 147 144 144 146 145 141 142 145 142 135 131 133 134 130 118 58 65 48 42 44
134 175 183 164 138 142 132 112 108 109 113 121 129 139 145 143 146 146 145 146 147 146 147 151 149 146 147 151 151 150 149 152 150 145 143 149 143 124 128 103 41 15 41 25
177 198 226 144 146 160 132 129 127 129 128 130 135 137 141 146 147 147 146 148 150 150 151 154 154 153 151 155 154 154 157 162 164 159 159 162 148 136 145 136 135 109 5 90